Regional Weather Roundup
Issued by NWS

Home | Current Version | Previous Version | Graphics & Text | Print | Product List | Glossary On
Versions: 1 2 3 4 5 6 7 8 9 10 11 12 13 14 15 16 17 18 19 20 21 22 23 24 25 26 27 28 29 30 31 32 33 34 35 36 37 38 39 40 41 42 43 44 45 46 47 48 49 50
000
ASUS43 KLMK 212010
RWRKY
KENTUCKY REGIONAL WEATHER ROUNDUP
NATIONAL WEATHER SERVICE LOUISVILLE KY
400 PM EDT MON AUG 21 2017

NOTE "FAIR" INDICATES FEW OR NO CLOUDS BELOW 12,000 FEET
WITH NO SIGNIFICANT WEATHER AND/OR OBSTRUCTIONS TO VISIBILITY.

KYZ001>023-026-027-061>063-070>075-212100-
WESTERN AND SOUTH CENTRAL KENTUCKY

CITY           SKY/WX    TMP DP  RH WIND       PRES   REMARKS
PADUCAH        SUNNY     92  74  55 VRB6      30.07F HX 101
HENDERSON      SUNNY     91  72  53 S8        30.08F HX  98
OWENSBORO      SUNNY     92  70  48 S8        30.09F HX  97
HOPKINSVILLE   SUNNY     90  73  58 SW6       30.10F HX  98
BOWLING GREEN  SUNNY     92  65  40 VRB3      30.12F HX  94
GLASGOW        SUNNY     91  67  45 S6        30.13F HX  94
$$

KYZ024-025-028>034-038-045-046-053-212100-
NORTH CENTRAL KENTUCKY

CITY           SKY/WX    TMP DP  RH WIND       PRES   REMARKS
LOUISVILLE/SDF MOSUNNY   92  68  45 SW13      30.10F HX  96
LOUISVILLE/LOU SUNNY     91  71  51 SW7       30.11F HX  97
FORT KNOX      SUNNY     90  68  49 S8        30.11F HX  93
$$

KYZ035>037-039>044-047>052-055>060-089>105-212100-
NORTHEAST KENTUCKY

CITY           SKY/WX    TMP DP  RH WIND       PRES   REMARKS
LEXINGTON      SUNNY     89  64  43 SW10      30.15F HX  90
COVINGTON      PTSUNNY   89  70  53 SW8       30.12F HX  94
FRANKFORT      SUNNY     90  67  46 S8        30.13S HX  93
$$

KYZ054-064>069-076>088-106>120-212100-
SOUTHEAST KENTUCKY

CITY           SKY/WX    TMP DP  RH WIND       PRES   REMARKS
JACKSON        MOSUNNY   86  70  58 CALM      30.19F HX  90
LONDON         MOSUNNY   87  66  49 CALM      30.18F
SOMERSET       MOSUNNY   86  68  54 W6        30.17F
MIDDLESBORO    SUNNY     87  70  57 CALM      30.18F HX  91
MONTICELLO     NOT AVBL
$$





USA.gov is the U.S. government's official web portal to all federal, state and local government web resources and services.